Location: Stony Creek
(40.9500°S, 175.8500°E)
Time: 10:08:15
(UTC+00:00)

ISS - Pass Details

Date: 15 May 2026
Orbit: 413 x 422 km, 51.6° (Epoch: 10 June)

Event Time Altitude Azimuth Distance (km) Brightness Sun altitude
Exits shadow 17:20:24 17° 1° (N) 1,169 -1.5 -22.1°
Maximum altitude 17:22:11 26° 46° (NE) 892 -1.6 -21.7°
Drops below altitude 10° 17:25:07 10° 104° (ESE) 1,539 0.1 -21.2°
Sets 17:27:27 0° 117° (ESE) 2,412 1.0 -20.8°
